LiveATC.Net - Listen to live air traffic control over the Internet!


ICAO: KTEB  IATA: TEB   Airport: Teterboro Airport
City: Teterboro   State/Province: New Jersey
Country: United States   Continent: North America
KTEB METAR Weather: KTEB 240551Z 32010KT 7SM -DZ FEW010 BKN015 OVC039 16/14 A2998 RMK AO2 RAE17DZB17 SLP150 P0003 60035 T01610144 10211 20161 53003
KTEB Flight Activity (FlightAware)
KTEB Airport Info   (iFlightPlanner)
KTEB VFR Sectional Chart   (iFlightPlanner) 
KTEB IFR Low Chart   (iFlightPlanner) 

KTEB Tower
Feed Status: UP   Listeners: 0
Listen in your browser - HTML5 player (in browser, HTML5)
Click here to listen with your own player (launches your MP3 player)
Archive Access: KTEB Tower
FacilityFrequency
Teterboro Tower119.500
Teterboro Tower125.100

NOTICE

Unauthorized use prohibited. See LiveATC.net Terms of Service


Airport/ARTCC Code
Frequency Search
(e.g., 124.400, 128.75)
Site-wide search
 


Browse Feeds
Top 50 Feeds
HF Oceanic Feeds
Coverage Map
Bad Weather Areas

LiveATC FAQ
Offer LiveATC feed
Contact LiveATC.net
Press Inquiries

LiveATC on iPhone
LiveATC on Android

Windows Phone
Windows 8/10

LiveATC Mobile
(Mobile browser)

ATC Audio Archives
Interesting Recordings

LiveATC Forums


Home Page
About LiveATC.net
Make a Donation
Terms of Use
Privacy Policy

Canadian Air Freqs

AIRMETs/SIGMETs

FAA Airport Status
NAS Status
Arrival Demand


Server Software By:
Icecast.org
Liquidsoap